STARLINK-33544, 62281

Orbit data source: Space-Track

STARLINK-33544, 62281 is a payload satellite owned by SpaceX/Seattle (US) in LEO that was launched on Sun, 08 Dec 2024 UTC via an FALCON 9 launch vehicle from the Air Force Eastern Test Range (AFETR). Payload-class satellites include a variety of spacecraft equipped with specific instruments for various scientific and technological missions. These include communications satellites like Starlink; space stations such as the ISS; scientific satellites like the Hubble; Earth observation satellites from companies like Planet Labs, Umbra, and HawkEye 360; GPS; miniature CubeSats for education and research; and military/defense satellites.

Loading next visibility...
Identifier
62281, 2024-237Q
Orbit
LEO
Country
Flag of USUS
Related business
Manufacturer
SpaceX/Seattle
Mission
Operational Commercial Communications
Bus & Motor
STARLINK V2MO, Unknown motor
Mass
530 kg wet, ~500 kg dry
Launch date (UTC)
2024-12-08 (2 years ago)
Launch vehicle
FALCON 9
Launch site
Air Force Eastern Test Range (AFETR)
Object type
Payload
Rocket body
Debris
Shape & HBR
Box + 2 Pan, 17.7 m
Radar Cross Section
36.964 m², Large (>1 m²)

Expand to show TLE details & history
Last TLE update: 1 day ago

TLE from 1 day ago
0 STARLINK-33544
1 62281U 24237Q   26170.91762073  .00017625  00000-0  64801-3 0  9991
2 62281  43.0042 359.2696 0002422 265.9479  94.1096 15.27602049 86825
Epoch: 2026-06-19T22:01Z
TLE epoch observation values (Epoch: 2026-06-19T22:01:22.431Z)
Latitude
0.00001°
Longitude
120.78643°
Altitude
482.878 km
Speed
7.626 km/s
True Right ascension
23h 57m 04s
True Declination
0° 00' 00"
Sunlit
Object was in daylight at epoch
Visualization orbit readout
Latitude
Unknown
Longitude
Unknown
Altitude
Unknown
Speed
Unknown
Apparent Right ascension
Unknown
Apparent Declination
Unknown
Sunlit
N/A
Visualization observer readout
Local Sidereal Time
08:42:25
Azimuth
Unknown
Elevation
Unknown
Doppler factor
Unknown
Orbital elements
Apogee altitude
486.59 km
Perigee altitude
483.265 km
Semi-major axis
6,863.065 km
Eccentricity
0.00024
Inclination
43.0042°
RAAN
359.2696°
Arg. of periapsis
265.9479°
True anomaly
94.13728°
Mean anomaly
94.1096°
Eccentric anomaly
94.12344°
Mean motion
3.81739 °/min
Orbital period
94.31 mins
BSTAR
0.00064801
Loading maneuver chart data...
Computing Atmospheric mass density...
Loading historical data...
Loading historical data...
Loading historical data...
Loading historical data...
Loading historical data...
Loading historical data...
Loading historical data...

Documentation

Showing up to 5 results
|